GW1572 Weather Reports


time (UTC)temp
F
wind
direction
speed
knots
gust
knots
rain 1hr
in
rain 24hr
in
rain mn
in
humidity
%
barometer
mb
20260906150147 71 173 1.7 2.6 0.00 0.00 0.00 98 1007.4
20260906145713 71 200 0.9 0.9 0.00 0.00 0.00 98 1007.4
20260906145256 71 219 1.7 2.6 0.00 0.00 0.00 98 1007.4
20260906144840 71 176 0.9 0.9 0.00 0.00 0.00 98 1007.1
20260906144423 71 190 0.9 0.9 0.00 0.00 0.00 99 1007.4
20260906144006 71 199 0.0 0.9 0.00 0.00 0.00 99 1007.1
20260906143549 70 182 0.9 0.9 0.00 0.00 0.00 99 1007.1
20260906143120 70 213 1.7 1.7 0.00 0.00 0.00 99 1007.1
20260906142703 70 236 1.7 2.6 0.00 0.00 0.00 99 1007.1
20260906142230 70 236 1.7 2.6 0.00 0.00 0.00 99 1007.1
20260906141813 70 223 3.5 3.5 0.00 0.00 0.00 99 1007.1
20260906141357 70 212 2.6 2.6 0.00 0.00 0.00 99 1007.1
20260906140938 70 179 1.7 2.6 0.00 0.00 0.00 99 1007.1
20260906140521 70 265 1.7 1.7 0.00 0.00 0.00 99 1007.1
20260906140050 70 202 1.7 1.7 0.00 0.00 0.00 99 1007.1
20260906135632 70 233 2.6 3.5 0.00 0.00 0.00 99 1007.1
20260906135216 70 94 0.9 1.7 0.00 0.00 0.00 99 1007.1
20260906134759 70 226 2.6 2.6 0.00 0.00 0.00 99 1007.1
20260906134344 70 195 1.7 1.7 0.00 0.00 0.00 99 1007.1
20260906133927 70 255 2.6 3.5 0.00 0.00 0.00 99 1007.1
20260906133510 70 234 1.7 1.7 0.00 0.00 0.00 99 1006.7
20260906133055 71 176 0.9 1.7 0.00 0.00 0.00 99 1007.1
20260906132637 70 190 1.7 2.6 0.00 0.00 0.00 99 1006.7
20260906132206 70 195 1.7 1.7 0.00 0.00 0.00 99 1006.7
20260906131734 70 169 0.0 0.0 0.00 0.00 0.00 99 1006.7
20260906131318 71 230 1.7 2.6 0.00 0.00 0.00 99 1006.7
20260906130413 71 234 0.9 0.9 0.00 0.00 0.00 99 1006.7
20260906125942 71 143 0.0 0.0 0.00 0.00 0.00 99 1006.4
20260906125037 71 168 0.0 0.9 0.00 0.00 0.00 99 1006.7
20260906124620 71 186 0.9 0.9 0.00 0.00 0.00 99 1006.4
20260906124148 71 179 0.9 1.7 0.00 0.00 0.00 99 1006.4
20260906123717 71 149 0.0 0.0 0.00 0.00 0.00 99 1006.4
20260906122813 71 147 0.0 0.0 0.00 0.00 0.00 99 1006.0
20260906122357 71 149 0.0 0.0 0.00 0.00 0.00 99 1006.4
20260906121925 71 149 0.0 0.0 0.00 0.00 0.00 99 1006.0
20260906121505 71 157 0.0 0.0 0.00 0.00 0.00 99 1006.4
20260906121018 71 146 0.0 0.0 0.00 0.00 0.00 99 1006.0
20260906120547 71 133 0.0 0.0 0.00 0.00 0.00 99 1006.0
20260906115157 71 144 0.0 0.0 0.00 0.00 0.00 99 1006.0
20260906114740 71 145 0.0 0.0 0.00 0.00 0.00 99 1006.0
20260906114324 71 141 0.0 0.0 0.00 0.00 0.00 99 1006.0
20260906113406 71 143 0.0 0.0 0.00 0.00 0.00 99 1005.7
20260906112920 71 148 0.0 0.0 0.00 0.00 0.00 99 1005.4
20260906111947 71 149 0.0 0.0 0.00 0.00 0.00 99 1005.4
20260906111532 71 157 0.0 0.0 0.00 0.00 0.00 99 1005.7
20260906111116 71 144 0.0 0.0 0.00 0.00 0.00 99 1005.4
20260906110700 71 147 0.0 0.0 0.00 0.00 0.00 99 1005.4
20260906110230 71 140 0.0 0.0 0.00 0.00 0.00 99 1005.4
20260906105815 71 134 0.0 0.0 0.00 0.00 0.00 99 1005.0
20260906105344 71 150 0.0 0.0 0.00 0.00 0.00 99 1005.0
20260906104441 70 138 0.0 0.0 0.00 0.00 0.00 99 1004.7
20260906104024 71 140 0.0 0.0 0.00 0.00 0.00 99 1005.0
20260906103609 70 146 0.0 0.0 0.00 0.00 0.00 99 1005.0
20260906103151 70 149 0.0 0.0 0.00 0.00 0.00 99 1005.0
20260906102650 70 134 0.0 0.0 0.00 0.00 0.00 99 1004.7
20260906102219 70 161 0.0 0.0 0.00 0.00 0.00 99 1004.7
20260906101803 70 196 0.9 1.7 0.00 0.00 0.00 99 1004.7
20260906101334 70 164 0.9 0.9 0.00 0.00 0.00 99 1004.7
20260906100902 70 154 0.0 0.0 0.00 0.00 0.00 99 1004.4
20260906100432 70 132 0.0 0.0 0.00 0.00 0.00 99 1004.4
20260906100016 70 132 0.0 0.0 0.00 0.00 0.00 99 1004.7
20260906095529 70 150 0.0 0.0 0.00 0.00 0.00 99 1004.7
20260906095112 71 150 0.0 0.0 0.00 0.00 0.00 99 1004.7
20260906093738 71 133 0.0 0.0 0.00 0.00 0.00 99 1004.7
20260906093322 71 139 0.0 0.0 0.00 0.00 0.00 99 1004.7
20260906092905 71 167 0.0 0.0 0.00 0.00 0.00 99 1004.7
20260906092450 70 173 0.0 0.9 0.00 0.00 0.00 99 1004.7
20260906092019 70 164 0.0 0.0 0.00 0.00 0.00 99 1004.7
20260906091549 70 158 0.0 0.0 0.00 0.00 0.00 99 1004.7
20260906091133 70 185 0.9 0.9 0.00 0.00 0.00 99 1004.4
20260906090659 70 149 0.0 0.0 0.00 0.00 0.00 99 1004.7
20260906090211 70 149 0.0 0.0 0.00 0.00 0.00 99 1004.4
20260906085739 70 142 0.0 0.0 0.00 0.00 0.00 99 1004.7
20260906085322 70 142 0.0 0.0 0.00 0.00 0.00 99 1004.7
20260906084002 70 141 0.0 0.0 0.00 0.00 0.00 99 1004.4
20260906083531 70 141 0.0 0.0 0.00 0.00 0.00 99 1004.4
20260906083114 69 141 0.0 0.0 0.00 0.00 0.00 99 1004.4
20260906082642 69 141 0.0 0.0 0.00 0.00 0.00 99 1004.7
20260906082211 69 141 0.0 0.0 0.00 0.00 0.00 99 1004.4
20260906081252 70 141 0.0 0.0 0.00 0.00 0.00 99 1004.4
20260906080821 70 140 0.0 0.0 0.00 0.00 0.00 99 1004.7
20260906080352 70 140 0.0 0.0 0.00 0.00 0.00 99 1004.4
20260906075935 70 140 0.0 0.0 0.00 0.00 0.00 99 1004.4
20260906075518 70 140 0.0 0.0 0.00 0.00 0.00 99 1004.7
20260906075046 70 140 0.0 0.0 0.00 0.00 0.00 99 1004.7
20260906074631 70 140 0.0 0.0 0.00 0.00 0.00 99 1004.7
20260906074214 70 139 0.0 0.0 0.00 0.00 0.00 99 1005.0
20260906073325 70 137 0.0 0.0 0.00 0.00 0.00 99 1004.7
20260906072908 70 117 0.0 0.0 0.00 0.00 0.00 99 1004.7
20260906072437 70 127 0.0 0.0 0.00 0.00 0.00 99 1004.4
20260906071549 70 137 0.0 0.0 0.00 0.00 0.00 99 1004.4
20260906071133 70 136 0.0 0.0 0.00 0.00 0.00 99 1004.4
20260906065727 70 143 0.0 0.0 0.00 0.00 0.00 99 1004.4
20260906065310 70 143 0.0 0.0 0.00 0.00 0.00 99 1004.4
20260906064838 70 143 0.0 0.0 0.00 0.00 0.00 99 1004.4
20260906063934 70 139 0.0 0.0 0.00 0.00 0.00 99 1004.4
20260906063518 70 137 0.0 0.0 0.00 0.00 0.00 99 1004.4
20260906063100 70 136 0.0 0.0 0.00 0.00 0.00 99 1004.4
20260906062645 70 143 0.0 0.0 0.00 0.00 0.00 99 1004.4
20260906061323 70 134 0.0 0.0 0.00 0.00 0.00 99 1004.4
20260906060906 71 139 0.0 0.0 0.00 0.00 0.00 99 1004.4
20260906060451 71 146 0.0 0.0 0.00 0.00 0.00 99 1004.4
20260906060035 71 146 0.0 0.0 0.00 0.00 0.00 99 1004.4
20260906055618 71 146 0.0 0.0 0.00 0.00 0.00 99 1004.4
20260906055203 71 144 0.0 0.0 0.00 0.00 0.00 99 1004.4
20260906054748 71 144 0.0 0.0 0.00 0.00 0.00 99 1004.4
20260906054302 71 143 0.0 0.0 0.00 0.00 0.00 99 1004.4
20260906053846 71 144 0.0 0.0 0.00 0.00 0.00 99 1004.4
20260906053416 71 144 0.0 0.0 0.00 0.00 0.00 99 1004.7
20260906052945 71 143 0.0 0.0 0.00 0.00 0.00 99 1004.7
20260906052043 71 143 0.0 0.0 0.00 0.00 0.00 99 1004.7
20260906050712 71 144 0.0 0.0 0.00 0.00 0.00 99 1004.4
20260906045824 71 141 0.0 0.0 0.00 0.00 0.00 99 1004.4
20260906045407 71 141 0.0 0.0 0.00 0.00 0.00 99 1004.4
20260906044951 72 140 0.0 0.0 0.00 0.00 0.00 99 1004.4
20260906044520 72 140 0.0 0.0 0.00 0.00 0.00 99 1004.4
20260906044104 72 140 0.0 0.0 0.00 0.00 0.00 99 1004.4
20260906042718 72 146 0.0 0.0 0.00 0.00 0.00 99 1004.4
20260906042302 72 142 0.0 0.0 0.00 0.00 0.00 99 1004.4
20260906041846 72 142 0.0 0.0 0.00 0.00 0.00 99 1004.0
20260906040928 72 142 0.0 0.0 0.00 0.00 0.00 99 1004.0
20260906040512 72 141 0.0 0.0 0.00 0.00 0.00 99 1003.7
20260906040056 72 142 0.0 0.0 0.00 0.00 0.00 99 1004.0
20260906035624 72 142 0.0 0.0 0.00 0.00 0.09 99 1004.0
20260906035207 72 140 0.0 0.0 0.00 0.00 0.09 99 1004.0
20260906034752 72 140 0.0 0.0 0.00 0.00 0.09 99 1004.0
20260906033820 73 140 0.0 0.0 0.00 0.00 0.09 99 1004.0
20260906033400 73 139 0.0 0.0 0.00 0.00 0.09 99 1004.4
20260906032944 73 139 0.0 0.0 0.00 0.00 0.09 99 1004.4
20260906032513 73 141 0.0 0.0 0.00 0.00 0.09 99 1004.4
20260906032043 73 138 0.0 0.0 0.00 0.00 0.09 99 1004.4
20260906031555 74 135 0.0 0.0 0.00 0.00 0.09 99 1004.4
20260906031140 74 95 0.0 0.0 0.00 0.00 0.09 99 1004.4
20260906030651 74 117 0.0 0.0 0.00 0.00 0.09 99 1004.4
20260906030236 74 114 0.0 0.0 0.00 0.00 0.09 99 1004.4
20260906025346 74 134 0.0 0.0 0.00 0.00 0.09 99 1004.4
20260906024914 74 124 0.0 0.0 0.00 0.00 0.09 99 1004.7
20260906024427 73 124 0.0 0.0 0.00 0.00 0.09 99 1004.7
20260906023954 73 121 0.0 0.0 0.00 0.00 0.09 99 1004.7
20260906023538 73 128 0.0 0.0 0.00 0.00 0.09 99 1004.7
20260906023107 73 128 0.0 0.0 0.00 0.00 0.09 99 1004.7
20260906022636 73 117 0.0 0.0 0.00 0.00 0.09 99 1004.7
20260906022204 74 117 0.0 0.0 0.00 0.00 0.09 99 1004.7
20260906021733 74 66 0.9 0.9 0.00 0.00 0.09 99 1004.7
20260906021316 74 44 0.9 0.9 0.00 0.00 0.09 99 1004.7
20260906020357 74 80 0.0 0.9 0.00 0.00 0.09 99 1004.4
20260906015941 74 130 0.0 0.0 0.00 0.00 0.09 99 1004.4
20260906015509 74 136 0.0 0.0 0.00 0.00 0.09 99 1004.4
20260906014621 74 107 0.0 0.0 0.00 0.00 0.09 99 1004.4
20260906014149 74 135 0.0 0.0 0.00 0.00 0.09 99 1004.4
20260906013733 74 140 0.0 0.0 0.00 0.00 0.09 99 1004.0
20260906013259 74 135 0.0 0.0 0.00 0.00 0.09 99 1004.0
20260906012842 74 117 0.0 0.0 0.00 0.00 0.09 98 1003.7
20260906012411 74 141 0.0 0.0 0.00 0.00 0.09 98 1003.7
20260906011939 74 141 0.0 0.0 0.00 0.00 0.09 98 1003.7
20260906011036 75 141 0.0 0.0 0.00 0.00 0.09 98 1003.3
20260906010133 75 140 0.0 0.0 0.00 0.00 0.09 97 1003.3
20260906005716 75 140 0.0 0.0 0.00 0.00 0.09 97 1003.7
20260906005244 75 140 0.0 0.0 0.00 0.00 0.09 97 1003.3
20260906004813 75 140 0.0 0.0 0.00 0.00 0.09 97 1003.7
20260906004340 75 136 0.0 0.0 0.00 0.00 0.09 97 1003.3
20260906003923 76 136 0.0 0.0 0.00 0.00 0.09 97 1003.3
20260906003506 76 134 0.0 0.0 0.00 0.00 0.09 96 1003.3
20260906002602 76 130 0.0 0.0 0.00 0.00 0.09 96 1003.3
20260906002147 76 124 0.0 0.0 0.00 0.00 0.09 96 1003.3
20260906001729 76 140 0.0 0.0 0.00 0.00 0.09 95 1003.3
20260906001257 76 132 0.0 0.0 0.00 0.00 0.09 95 1003.7
20260906000841 77 142 0.0 0.0 0.00 0.00 0.09 94 1003.7
20260906000411 77 130 0.0 0.0 0.00 0.00 0.09 93 1003.3
20260905235952 77 130 0.0 0.0 0.00 0.00 0.09 93 1003.3
20260905235536 78 143 0.0 0.0 0.00 0.00 0.09 92 1003.7
20260905235047 78 140 0.0 0.0 0.00 0.00 0.09 91 1003.7
20260905234631 79 135 0.0 0.0 0.00 0.00 0.09 91 1003.7
20260905234216 79 145 0.0 0.0 0.00 0.00 0.09 90 1003.7
20260905233801 80 141 0.0 0.0 0.00 0.00 0.09 88 1004.0
20260905233345 81 136 0.0 0.0 0.00 0.00 0.09 87 1003.7
20260905231547 85 140 0.0 0.0 0.00 0.00 0.09 81 1003.7
20260905231119 85 138 0.0 0.0 0.00 0.00 0.09 82 1003.7
20260905230219 83 136 0.0 0.0 0.00 0.00 0.09 84 1004.0
20260905225747 83 142 0.0 0.0 0.00 0.00 0.09 84 1003.7
20260905225317 84 141 0.0 0.0 0.00 0.00 0.09 83 1003.7
20260905224846 85 135 0.0 0.0 0.00 0.00 0.09 83 1004.0
20260905224429 85 138 0.0 0.0 0.00 0.00 0.09 81 1003.7
20260905224010 86 144 0.0 0.0 0.00 0.00 0.09 80 1004.0
20260905223539 86 130 0.0 0.0 0.00 0.00 0.09 78 1003.7
20260905223125 86 146 0.0 0.0 0.00 0.00 0.09 78 1003.7
20260905222710 86 144 0.0 0.0 0.00 0.00 0.09 79 1004.0
20260905222255 85 140 0.0 0.0 0.00 0.00 0.09 80 1004.0
20260905221839 85 146 0.0 0.9 0.00 0.00 0.09 80 1003.7
20260905220938 86 138 0.0 0.0 0.00 0.00 0.09 76 1003.7
20260905220520 86 156 0.0 0.9 0.00 0.00 0.09 76 1003.7
20260905220046 85 210 3.5 3.5 0.00 0.00 0.09 75 1004.0
20260905215630 86 212 3.5 3.5 0.00 0.00 0.09 73 1003.7
20260905215159 86 203 0.9 0.9 0.00 0.00 0.09 74 1004.0
20260905214312 85 208 1.7 1.7 0.00 0.00 0.09 75 1003.7
20260905212943 86 181 0.9 0.9 0.00 0.00 0.09 74 1003.7
20260905212044 86 198 2.6 2.6 0.00 0.00 0.09 72 1003.3
20260905211614 85 210 1.7 1.7 0.00 0.00 0.09 74 1003.3
20260905211158 86 255 1.7 2.6 0.00 0.00 0.09 75 1003.3
20260905210743 85 180 0.9 0.9 0.00 0.00 0.09 74 1003.3
20260905204925 86 234 3.5 6.1 0.00 0.00 0.09 72 1003.3
20260905204510 86 198 0.9 0.9 0.00 0.00 0.09 71 1003.3
20260905204053 86 222 1.7 2.6 0.00 0.00 0.09 73 1003.3
20260905203637 88 195 0.9 1.7 0.00 0.00 0.09 71 1003.3
20260905203223 87 168 0.0 0.0 0.00 0.00 0.09 70 1003.7
20260905202807 86 223 1.7 1.7 0.00 0.00 0.09 70 1003.7
20260905202353 87 183 1.7 2.6 0.00 0.00 0.09 71 1003.7
20260905201939 86 193 2.6 3.5 0.00 0.00 0.09 69 1003.7
20260905201524 88 315 0.9 1.7 0.00 0.00 0.09 70 1003.3
20260905201053 87 205 0.9 1.7 0.00 0.00 0.09 70 1004.0
20260905200154 87 175 0.0 0.0 0.00 0.00 0.09 70 1004.0
20260905195724 86 239 4.3 5.2 0.00 0.00 0.09 72 1004.4
20260905195307 86 189 0.9 1.7 0.00 0.00 0.09 71 1004.0
20260905194404 86 275 0.9 1.7 0.00 0.00 0.09 71 1004.4
20260905193500 87 182 0.9 0.9 0.00 0.00 0.09 70 1004.4
20260905193043 86 186 0.9 0.9 0.00 0.00 0.09 69 1004.4
20260905192613 86 217 0.0 0.0 0.00 0.00 0.09 73 1004.4
20260905192142 85 285 1.7 1.7 0.00 0.00 0.09 77 1004.7
20260905191726 86 240 0.9 1.7 0.00 0.00 0.09 74 1004.7
20260905191255 85 154 0.9 1.7 0.00 0.00 0.09 74 1004.7
20260905190840 86 214 1.7 1.7 0.00 0.00 0.09 73 1004.4
20260905190408 86 241 0.9 1.7 0.00 0.00 0.09 75 1004.7
20260905185938 85 49 1.7 1.7 0.00 0.00 0.09 76 1005.0
20260905185522 85 263 2.6 3.5 0.00 0.00 0.09 78 1004.7
20260905185051 85 246 1.7 2.6 0.00 0.00 0.09 75 1004.7
20260905184637 84 6 1.7 1.7 0.00 0.00 0.09 76 1005.0
20260905184222 85 143 1.7 1.7 0.00 0.00 0.09 75 1004.7
20260905183735 86 342 1.7 1.7 0.00 0.00 0.09 74 1004.7
20260905183319 86 345 0.0 0.9 0.00 0.00 0.09 76 1005.0
20260905182900 84 140 0.9 0.9 0.00 0.00 0.09 79 1005.0
20260905182014 84 201 0.9 1.7 0.00 0.00 0.09 77 1005.0
20260905181554 84 201 0.9 0.9 0.00 0.00 0.09 77 1005.0
20260905181123 83 170 0.0 0.9 0.00 0.00 0.09 81 1005.0
20260905180706 83 131 0.0 0.0 0.00 0.00 0.09 79 1005.0
20260905175804 84 127 0.9 0.9 0.00 0.00 0.09 74 1005.0
20260905175349 83 185 0.9 0.9 0.00 0.00 0.09 76 1005.0
20260905174934 82 193 0.0 0.9 0.00 0.00 0.09 79 1005.4
20260905174050 82 127 0.9 0.9 0.00 0.00 0.09 80 1005.0
20260905173634 83 168 0.0 0.0 0.00 0.00 0.09 81 1005.4
20260905173204 82 154 0.0 0.9 0.00 0.00 0.09 81 1005.4
20260905172747 82 191 0.9 0.9 0.00 0.00 0.09 82 1005.7
20260905171900 80 144 0.9 0.9 0.00 0.00 0.09 85 1005.4
20260905171444 80 271 0.9 1.7 0.00 0.00 0.09 85 1005.7
20260905170542 79 253 1.7 1.7 0.00 0.00 0.09 86 1006.0
20260905170127 79 137 0.9 0.9 0.00 0.00 0.09 87 1005.7
20260905165711 79 115 0.0 0.0 0.00 0.00 0.09 87 1006.0
20260905165253 79 117 0.0 0.0 0.00 0.00 0.09 88 1006.0
20260905164836 79 196 1.7 1.7 0.00 0.00 0.09 87 1006.0
20260905164422 80 179 0.0 0.9 0.00 0.00 0.09 87 1006.0
20260905163949 79 146 0.0 0.0 0.00 0.00 0.09 85 1006.0
20260905163518 80 156 0.0 0.0 0.00 0.00 0.09 87 1006.0
20260905163048 79 145 0.0 0.0 0.00 0.00 0.09 88 1006.0
20260905162632 79 146 0.0 0.9 0.00 0.00 0.09 88 1005.7
20260905162200 79 144 0.0 0.0 0.00 0.00 0.09 90 1006.0
20260905161743 79 131 0.0 0.0 0.00 0.00 0.09 89 1006.0
20260905161327 78 168 0.0 0.9 0.00 0.00 0.09 90 1006.0
20260905160856 77 142 0.0 0.0 0.00 0.00 0.09 90 1006.0
20260905160442 77 153 0.0 0.0 0.00 0.00 0.09 91 1006.4
20260905160011 76 138 0.0 0.0 0.00 0.00 0.09 94 1006.4
20260905155541 76 354 1.7 1.7 0.00 0.00 0.09 93 1006.4
20260905154209 76 196 0.9 0.9 0.00 0.00 0.09 93 1006.0
20260905153736 76 230 0.9 1.7 0.00 0.00 0.09 93 1006.4
20260905153318 76 141 0.0 0.0 0.00 0.00 0.09 96 1006.0
20260905152901 76 134 0.0 0.9 0.00 0.00 0.09 95 1006.0
20260905152444 75 110 0.0 0.9 0.00 0.00 0.09 96 1005.4
20260905152027 75 139 0.0 0.0 0.00 0.00 0.09 98 1005.4
20260905151555 75 86 0.0 0.0 0.00 0.00 0.09 99 1005.4
20260905151140 74 115 0.0 0.0 0.00 0.00 0.09 98 1005.0
20260905150722 74 101 0.9 0.9 0.00 0.00 0.09 98 1005.4